Weather History for KHFD - May, 2014

Change the Weather History Date:

Saturday, May 10, 2014

  Actual Average Record
Temperature  
Mean Temperature 70 °F -  
Max Temperature 82 °F 66 °F 92 °F (1965)
Min Temperature 60 °F 45 °F 28 °F (1947)
Cooling Degree Days 6    
Growing Degree Days 20 (Base 50)    
Moisture  
Dew Point 60 °F    
Average Humidity 84    
Maximum Humidity 97    
Minimum Humidity 44    
Precipitation  
Precipitation 0.78 in - - ()
Sea Level Pressure  
Sea Level Pressure 29.87 in    
Wind  
Wind Speed 6 mph (South)    
Max Wind Speed 16 mph    
Max Gust Speed 26 mph    
Visibility 6 miles    
Events Fog , Rain , Thunderstorm    
Averages and records for this station are not official NWS values.
T = Trace of Precipitation, MM = Missing Value Source: NWS Daily Summary

Daily Weather History Graph

Daily Weather History Graph

Search for Another Location

Airport or City:

Trip Planner

Search our weather history database for the weather conditions in past years. The results will help you decide how hot, cold, wet, or windy it might be!

Date:

Astronomy

May. 10, 2014 Rise Set
Actual Time 5:36 AM EDT 7:58 PM EDT
Civil Twilight 5:04 AM EDT 8:29 PM EDT
Nautical Twilight 4:26 AM EDT 9:08 PM EDT
Astronomical Twilight 3:43 AM EDT 9:51 PM EDT
Moon 3:47 PM EDT (5/10) 3:11 AM EDT (5/10)
Length of Visible Light 15h 24m
Length of Day
14h 22m
Waxing Gibbous, 82% of the Moon is Illuminated
May 10
Waxing Gibbous
May 14
Full
May 21
Last Quarter
May 28
New
Jun 5
First Quarter

Hourly Weather History & Observations

Time (EDT) Temp. Heat Index Dew Point Humidity Pressure Visibility Wind Dir Wind Speed Gust Speed Precip Events Conditions
12:21 AM 60.1 °F - 57.9 °F 93% 30.04 in 6.0 mi SSW 3.5 mph - 0.01 in Rain Light Rain
12:53 AM 61.0 °F - 59.0 °F 93% 30.02 in 10.0 mi South 5.8 mph - 0.01 in   Overcast
1:03 AM 61.0 °F - 59.0 °F 93% 30.01 in 9.0 mi South 5.8 mph - N/A   Overcast
1:23 AM 61.0 °F - 59.0 °F 93% 29.99 in 10.0 mi South 4.6 mph - N/A   Overcast
1:53 AM 62.1 °F - 60.1 °F 93% 29.97 in 10.0 mi South 9.2 mph - N/A   Overcast
2:53 AM 62.1 °F - 60.1 °F 93% 29.94 in 8.0 mi South 9.2 mph - N/A   Overcast
3:43 AM 62.1 °F - 60.1 °F 93% 29.91 in 5.0 mi SSE 8.1 mph - N/A   Overcast
3:53 AM 62.1 °F - 60.1 °F 93% 29.92 in 5.0 mi South 8.1 mph - N/A   Overcast
4:38 AM 61.0 °F - 60.1 °F 97% 29.90 in 4.0 mi SSE 5.8 mph - N/A   Overcast
4:53 AM 61.0 °F - 60.1 °F 97% 29.89 in 4.0 mi South 5.8 mph - N/A   Overcast
5:16 AM 62.1 °F - 60.1 °F 93% 29.88 in 5.0 mi SSE 6.9 mph - N/A   Overcast
5:30 AM 62.1 °F - 60.1 °F 93% 29.89 in 5.0 mi South 4.6 mph - N/A   Overcast
5:53 AM 62.1 °F - 60.1 °F 93% 29.89 in 3.0 mi South 5.8 mph - N/A   Overcast
6:18 AM 62.1 °F - 60.1 °F 93% 29.90 in 2.5 mi Variable 3.5 mph - 0.00 in Rain Light Rain
6:21 AM 62.1 °F - 60.1 °F 93% 29.90 in 3.0 mi South 6.9 mph - 0.00 in Rain Light Rain
7:53 AM 61.0 °F - 59.0 °F 93% 29.89 in 2.0 mi SSW 5.8 mph - 0.01 in   Overcast
8:00 AM 61.0 °F - 59.0 °F 93% 29.89 in 2.0 mi SSW 5.8 mph - N/A   Overcast
8:24 AM 62.1 °F - 59.0 °F 90% 29.88 in 2.0 mi SSE 6.9 mph - N/A   Mostly Cloudy
8:53 AM 62.1 °F - 59.0 °F 90% 29.89 in 3.0 mi Variable 5.8 mph - N/A   Overcast
9:53 AM 64.0 °F - 60.1 °F 87% 29.89 in 6.0 mi South 8.1 mph - N/A   Overcast
10:53 AM 66.0 °F - 61.0 °F 84% 29.88 in 7.0 mi SSE 8.1 mph - N/A   Overcast
11:53 AM 71.1 °F - 62.1 °F 73% 29.88 in 10.0 mi East 5.8 mph - N/A   Overcast
12:14 PM 73.9 °F - 63.0 °F 68% 29.87 in 10.0 mi SW 8.1 mph - N/A   Scattered Clouds
12:53 PM 75.0 °F - 61.0 °F 62% 29.86 in 10.0 mi SSW 5.8 mph - N/A   Clear
1:53 PM 79.0 °F - 57.9 °F 48% 29.84 in 10.0 mi WSW 10.4 mph - N/A   Clear
2:53 PM 81.0 °F 81.0 °F 57.0 °F 44% 29.80 in 10.0 mi SW 5.8 mph - N/A   Partly Cloudy
3:53 PM 79.0 °F - 57.9 °F 48% 29.76 in 10.0 mi South 10.4 mph - 0.00 in Rain Light Rain
4:07 PM 78.1 °F - 55.9 °F 46% 29.77 in 10.0 mi SW 8.1 mph - 0.00 in Thunderstorm Mostly Cloudy
4:47 PM 66.2 °F - 60.8 °F 83% 29.82 in 1.8 mi SSW 15.0 mph 26.5 mph 0.08 in Rain , Thunderstorm Heavy Rain
4:53 PM 66.0 °F - 60.1 °F 81% 29.82 in 2.5 mi South 13.8 mph - 0.09 in Rain , Thunderstorm Rain
4:56 PM 64.9 °F - 60.1 °F 84% 29.81 in 4.0 mi South 16.1 mph - 0.01 in Rain Light Rain
5:53 PM 66.0 °F - 62.1 °F 87% 29.80 in 10.0 mi South 6.9 mph - 0.01 in   Mostly Cloudy
6:27 PM 69.1 °F - 61.0 °F 75% 29.82 in 10.0 mi Calm Calm - N/A   Overcast
6:39 PM 66.0 °F - 63.0 °F 90% 29.81 in 9.0 mi NE 5.8 mph - N/A   Overcast
6:53 PM 64.9 °F - 61.0 °F 87% 29.84 in 1.2 mi WNW 5.8 mph - 0.21 in Rain Heavy Rain
7:02 PM 64.0 °F - 62.1 °F 93% 29.84 in 0.5 mi WSW 4.6 mph - 0.21 in Fog , Rain Heavy Rain
7:14 PM 64.0 °F - 61.0 °F 90% 29.85 in 1.2 mi WSW 8.1 mph - 0.35 in Rain Heavy Rain
7:53 PM 63.0 °F - 60.1 °F 90% 29.83 in 7.0 mi SSE 8.1 mph - 0.45 in Rain Light Rain
8:53 PM 62.1 °F - 60.1 °F 93% 29.82 in 10.0 mi South 4.6 mph - 0.00 in   Partly Cloudy
9:53 PM 63.0 °F - 60.1 °F 90% 29.83 in 10.0 mi SSW 4.6 mph - N/A   Mostly Cloudy
11:53 PM 63.0 °F - 60.1 °F 90% 29.83 in 9.0 mi South 5.8 mph - N/A   Clear